{"data":{"norad_id":67790,"epoch":"2026-09-20T20:54:25.775424Z","epoch_age_seconds":54381,"freshness":"FRESH","line1":"1 67790U 26030AC  26263.87113166  .00001934  00000+0  28262-3 0  9991","line2":"2 67790  51.9043  47.5746 0000783 132.0983 228.0046 14.79932362 34397","mean_motion":14.79932362,"eccentricity":7.83e-5,"inclination_deg":51.9043,"raan_deg":47.5746,"arg_perigee_deg":132.0983,"mean_anomaly_deg":228.0046,"bstar":0.00028262,"rev_number":3439,"period_min":97.301744118492,"perigee_km":628.98894225906,"apogee_km":630.08634410818,"semimajor_km":7007.6746431836,"source":"CELESTRAK","updated_at":"2026-09-21T09:00:16.857866Z"}}